Laconia, NH

11:42 PM EST on November 16, 2019 (GMT -0500)
Laconia Municipal

Weather History for KLCI - September, 2019

Change the Weather History Date:

Tuesday, September 17, 2019

  Actual Average Record
Temperature  
Mean Temperature 54 °F -  
Max Temperature 66 °F 69 °F 85 °F (1991)
Min Temperature 43 °F 48 °F 35 °F (2013)
Degree Days  
Heating Degree Days 12    
Growing Degree Days 4 (Base 50)    
Moisture  
Dew Point 48 °F    
Average Humidity 73    
Maximum Humidity 100    
Minimum Humidity 54    
Precipitation  
Precipitation 0.00 in - - ()
Sea Level Pressure  
Sea Level Pressure 30.15 in    
Wind  
Wind Speed 3 mph ()    
Max Wind Speed 13 mph    
Max Gust Speed 21 mph    
Visibility 10.0 miles    
Events      
Averages and records for this station are not official NWS values.
T = Trace of Precipitation, MM = Missing Value Source: Averaged Metar Reports

Daily Weather History Graph

Daily Weather History Graph

Search for Another Location

Airport or City:

Astronomy

Sep. 17, 2019 Rise Set
Actual Time 6:27 AM EDT 6:52 PM EDT
Civil Twilight 5:58 AM EDT 7:21 PM EDT
Nautical Twilight 5:24 AM EDT 7:55 PM EDT
Astronomical Twilight 4:49 AM EDT 8:29 PM EDT
Moon 8:48 PM EDT 9:33 AM EDT
Length of Visible Light 13h 23m
Length of Day
12h 25m
Waning Gibbous, 89% of the Moon is Illuminated
Sep 17
Waning Gibbous
Sep 21
Last Quarter
Sep 28
New
Oct 5
First Quarter
Oct 13
Full

Hourly Weather History & Observations

Time (EDT) Temp. Dew Point Humidity Pressure Visibility Wind Dir Wind Speed Gust Speed Precip Events Conditions
12:56 AM 51.1 °F 48.0 °F 89% 30.08 in 10.0 mi WSW 6.9 mph - N/A   Clear
1:56 AM 48.0 °F 46.0 °F 93% 30.08 in 10.0 mi Calm Calm - N/A   Clear
2:56 AM 46.9 °F 45.0 °F 93% 30.09 in 10.0 mi Calm Calm - N/A   Clear
3:56 AM 46.9 °F 46.0 °F 97% 30.09 in 10.0 mi Calm Calm - N/A   Clear
4:56 AM 45.0 °F 45.0 °F 100% 30.09 in 10.0 mi Calm Calm - N/A   Clear
5:56 AM 43.0 °F 43.0 °F 100% 30.10 in 10.0 mi Calm Calm - N/A   Clear
6:56 AM 46.0 °F 45.0 °F 96% 30.13 in 10.0 mi Calm Calm - N/A   Clear
7:56 AM 54.0 °F 48.0 °F 80% 30.13 in 10.0 mi Calm Calm - N/A   Clear
8:56 AM 59.0 °F 46.9 °F 64% 30.14 in 10.0 mi Variable 3.5 mph - N/A   Clear
9:56 AM 61.0 °F 48.0 °F 62% 30.16 in 10.0 mi Variable 6.9 mph - N/A   Clear
10:56 AM 63.0 °F 48.0 °F 58% 30.16 in 10.0 mi ENE 6.9 mph - N/A   Clear
11:56 AM 64.9 °F 48.0 °F 54% 30.16 in 10.0 mi ENE 8.1 mph - N/A   Mostly Cloudy
12:56 PM 64.0 °F 46.9 °F 54% 30.15 in 10.0 mi NE 5.8 mph - N/A   Mostly Cloudy
1:56 PM 64.9 °F 48.9 °F 56% 30.15 in 10.0 mi Variable 4.6 mph - N/A   Overcast
2:56 PM 64.0 °F 50.0 °F 60% 30.15 in 10.0 mi ENE 8.1 mph - N/A   Mostly Cloudy
3:56 PM 64.0 °F 50.0 °F 60% 30.14 in 10.0 mi ENE 5.8 mph - N/A   Overcast
4:56 PM 64.0 °F 50.0 °F 60% 30.15 in 10.0 mi East 4.6 mph - N/A   Overcast
5:56 PM 63.0 °F 50.0 °F 63% 30.16 in 10.0 mi NE 3.5 mph - N/A   Overcast
6:56 PM 62.1 °F 50.0 °F 65% 30.17 in 10.0 mi ENE 4.6 mph - N/A   Overcast
7:56 PM 60.1 °F 52.0 °F 75% 30.19 in 10.0 mi East 3.5 mph - N/A   Overcast
8:56 PM 60.1 °F 51.1 °F 72% 30.20 in 10.0 mi ENE 6.9 mph - N/A   Overcast
9:56 PM 60.1 °F 48.9 °F 67% 30.21 in 10.0 mi ENE 8.1 mph - N/A   Overcast
10:56 PM 57.0 °F 46.9 °F 69% 30.23 in 10.0 mi ENE 11.5 mph - N/A   Overcast
11:56 PM 55.9 °F 43.0 °F 62% 30.24 in 10.0 mi ENE 12.7 mph 20.7 mph N/A   Overcast